Location: Ku?niki
(51.4449°N, 17.8974°E)
Time: 03:42:52
(UTC+00:00)

CRYOSAT 2 - Pass Details

Date: 18 September 2020
Orbit: 714 x 725 km, 92.0° (Epoch: 22 October)

Event Time Altitude Azimuth Distance (km) Brightness Sun altitude
Rises 19:10:23 0° 8° (N) 3,154 8.0 -20.8°
Reaches altitude 10° 19:12:45 10° 13° (NNE) 2,227 7.1 -21.1°
Maximum altitude 19:17:33 51° 90° (E) 912 4.5 -21.8°
Enters shadow 19:17:40 51° 95° (E) 913 4.5 -21.8°
